[[{"header":{"parameterUnit":"m.s-1","parameterCategory":1,"la1":30.2992,"la2":30.254,"lo1":-89.0895,"lo2":-89.0443,"dy":0.0025,"dx":0.0025,"nx":19,"ny":19,"refTime":"2026-04-15T09:00:00:Z","depth":0,"parameterNumber":2,"parameterNumberName":"U-component_of_WINDS"},"data":[0,0,0,-2.151,-2.1508,-2.142,-2.142,-2.1321,-2.132,0,0,0,0,0,0,0,0,0,0,0,-2.1545,-2.1545,-2.151,-2.1508,-2.142,-2.142,-2.1321,-2.132,0,0,0,0,0,0,0,0,0,0,0,-2.1545,-2.1545,-2.1545,-2.1508,-2.1421,-2.142,-2.1321,-2.1382,0,0,0,0,0,0,0,0,0,0,-2.1465,-2.1507,-2.1545,-2.1545,-2.1507,-2.1421,-2.142,-2.1385,-2.1378,-2.1366,0,-2.136,0,-2.1339,-2.1314,-2.1314,0,0,0,-2.15,-2.1513,-2.1481,-2.1545,-2.1507,-2.1421,-2.1458,-2.1381,-2.1374,-2.1358,-2.1358,-2.1354,-2.1337,-2.1314,-2.1313,-2.1275,-2.1276,0,0,-2.1505,-2.1534,-2.1486,-2.1477,-2.1493,-2.1461,-2.1455,-2.1376,-2.1378,-2.1358,-2.1352,-2.1335,-2.1313,-2.1312,-2.1275,-2.1275,0,0,0,-2.1524,-2.1538,-2.1507,-2.1481,-2.1464,-2.1458,-2.1452,-2.1381,-2.1369,-2.135,-2.1334,-2.1313,-2.1311,-2.1275,-2.1275,-2.1313,0,0,0,-2.1527,-2.1549,-2.151,-2.1526,-2.1466,-2.1422,-2.1459,-2.1375,-2.1365,-2.1335,-2.1312,-2.1311,-2.1275,-2.1275,-2.1311,-2.1325,0,0,0,-2.1548,-2.1551,-2.1542,-2.1528,-2.1492,-2.1423,-2.1406,-2.1372,-2.1355,-2.1314,-2.131,-2.1274,-2.1275,-2.131,-2.1322,-2.1324,0,0,0,-2.1577,-2.1574,-2.1543,-2.1533,-2.1493,-2.1448,-2.1406,-2.137,-2.1339,-2.1312,-2.1275,-2.1275,-2.1309,-2.1321,-2.1322,-2.1329,-2.1335,0,0,-2.1589,-2.1577,-2.1569,-2.1538,-2.1506,-2.1459,-2.1431,-2.1374,-2.1343,-2.1299,-2.1298,-2.1312,-2.1322,-2.1323,-2.1359,-2.1364,0,0,0,-2.1583,-2.1577,-2.1563,-2.1536,-2.1494,-2.146,-2.1405,-2.1384,-2.1346,-2.1327,-2.1312,-2.1317,-2.1316,-2.1318,-2.1323,-2.132,-2.1278,-2.1278,-2.1277,-2.1639,-2.1602,-2.1587,-2.154,-2.1514,-2.1459,-2.1434,-2.1397,-2.1364,-2.1362,-2.1348,-2.1375,-2.1378,-2.1381,-2.1379,-2.1349,-2.1349,-2.135,-2.135,-2.1653,-2.164,-2.16,-2.1571,-2.1532,-2.1506,-2.1454,-2.1433,-2.1402,-2.1381,-2.1379,-2.1359,-2.1388,-2.1384,-2.1352,-2.1352,-2.1351,-2.1351,-2.1351,-2.1685,-2.1672,-2.1649,-2.1608,-2.158,-2.1532,-2.1506,-2.147,-2.1436,-2.1434,-2.1416,-2.1415,-2.141,-2.1429,-2.1429,-2.1429,-2.1429,-2.1429,-2.1429,-2.1727,-2.17,-2.1683,-2.1641,-2.162,-2.1588,-2.1535,-2.1512,-2.1478,-2.1454,-2.1454,-2.1423,-2.1398,-2.1393,-2.143,-2.143,-2.143,-2.143,-2.143,-2.1754,-2.1743,-2.1717,-2.1697,-2.1645,-2.162,-2.1576,-2.1535,-2.1511,-2.15,-2.1469,-2.1458,-2.1441,-2.1437,-2.1432,-2.1478,-2.1478,-2.1478,-2.1478,-2.1781,-2.177,-2.1737,-2.1706,-2.1672,-2.1631,-2.1603,-2.1562,-2.1517,-2.15,-2.1488,-2.1479,-2.1477,-2.1462,-2.1458,-2.1452,-2.1502,-2.1502,-2.1502,-2.1795,-2.178,-2.1763,-2.1721,-2.1679,-2.1643,-2.1615,-2.1581,-2.1528,-2.1502,-2.1486,-2.1485,-2.1469,-2.1467,-2.1439,-2.1433,-2.1423,0,0]},{"header":{"parameterUnit":"m.s-1","parameterCategory":1,"la1":30.2992,"la2":30.254,"lo1":-89.0895,"lo2":-89.0443,"dy":0.0025,"dx":0.0025,"nx":19,"ny":19,"refTime":"2026-04-15T09:00:00:Z","depth":0,"parameterNumber":3,"parameterNumberName":"V-component_of_WINDS"},"data":[0,0,0,4.6262,4.6262,4.623,4.623,4.6186,4.6185,0,0,0,0,0,0,0,0,0,0,0,4.6272,4.6271,4.6262,4.6262,4.623,4.623,4.6186,4.6185,0,0,0,0,0,0,0,0,0,0,0,4.6272,4.6271,4.6271,4.6261,4.623,4.623,4.6186,4.6211,0,0,0,0,0,0,0,0,0,0,4.6242,4.6251,4.6271,4.6271,4.6261,4.623,4.623,4.6212,4.6209,4.62,0,4.6193,0,4.6189,4.6182,4.6182,0,0,0,4.6261,4.6253,4.6245,4.6271,4.6261,4.623,4.6244,4.621,4.6207,4.6196,4.6192,4.619,4.6188,4.6182,4.6182,4.6135,4.6134,0,0,4.6263,4.6265,4.6247,4.6243,4.625,4.6245,4.6243,4.6208,4.6204,4.6192,4.6189,4.6187,4.6182,4.6182,4.6135,4.6134,0,0,0,4.6268,4.6266,4.6259,4.6245,4.6239,4.6244,4.6242,4.6205,4.6203,4.6189,4.6187,4.6182,4.6181,4.6135,4.6135,4.6128,0,0,0,4.6269,4.627,4.626,4.6261,4.624,4.6222,4.6239,4.6205,4.6201,4.6187,4.6182,4.6181,4.6135,4.6135,4.6129,4.6124,0,0,0,4.6274,4.627,4.6266,4.6261,4.6248,4.6223,4.6218,4.6204,4.62,4.6182,4.6181,4.6135,4.6135,4.613,4.6125,4.6113,0,0,0,4.6278,4.6259,4.6266,4.6243,4.6248,4.622,4.6218,4.6197,4.6181,4.6181,4.6135,4.6135,4.613,4.6126,4.6114,4.6103,4.6099,0,0,4.6254,4.6256,4.6242,4.6248,4.6219,4.6225,4.6194,4.6176,4.6171,4.6147,4.6145,4.6129,4.6125,4.6113,4.6077,4.6074,0,0,0,4.6235,4.6226,4.6218,4.6204,4.6192,4.6181,4.6168,4.6162,4.6142,4.616,4.6121,4.6119,4.6112,4.6107,4.6104,4.6098,4.6133,4.6133,4.6133,4.6204,4.6201,4.6179,4.6173,4.616,4.6148,4.6137,4.6126,4.6125,4.6116,4.6108,4.6087,4.6081,4.6079,4.6073,4.6103,4.6103,4.6103,4.6103,4.6168,4.6154,4.6157,4.6136,4.6133,4.6114,4.6103,4.6103,4.6085,4.6092,4.6086,4.6093,4.6076,4.607,4.6103,4.6103,4.6103,4.6103,4.6103,4.6147,4.614,4.6135,4.6117,4.6103,4.6097,4.6081,4.6078,4.6075,4.6069,4.6061,4.6061,4.606,4.6065,4.6065,4.6065,4.6065,4.6065,4.6065,4.6126,4.6121,4.6108,4.6096,4.6088,4.6078,4.6068,4.6059,4.6049,4.6048,4.6048,4.6048,4.6076,4.6083,4.6064,4.6064,4.6064,4.6064,4.6064,4.6091,4.6099,4.608,4.6072,4.6058,4.6045,4.6043,4.6027,4.602,4.6012,4.6014,4.6035,4.6035,4.6037,4.6043,4.6015,4.6015,4.6015,4.6015,4.6072,4.6074,4.6054,4.6043,4.6031,4.6028,4.6006,4.5998,4.5991,4.5986,4.599,4.5998,4.6,4.5999,4.6001,4.6007,4.597,4.597,4.597,4.605,4.6051,4.6033,4.6028,4.6018,4.6009,4.5988,4.5973,4.5967,4.5968,4.5983,4.5984,4.5997,4.6001,4.6001,4.6005,4.6015,0,0]}]]